DW1028 Weather Reports


time (UTC)temp
C
wind
direction
speed
KPH
gust
KPH
rain 1hr
cm
rain 24hr
cm
rain mn
cm
humidity
%
barometer
mb
20260506044553 19 275 8.0 11.3 0.00 0.00 0.00 52 1013.2
20260506043052 19 0 0.0 4.8 0.00 0.00 0.00 52 1013.1
20260506041551 19 302 0.0 4.8 0.00 0.00 0.00 50 1013.0
20260506040054 19 284 4.8 9.7 0.00 0.00 0.00 51 1012.8
20260506034602 19 355 3.2 8.0 0.00 0.00 0.00 53 1012.6
20260506033045 20 327 4.8 8.0 0.00 0.00 0.00 51 1012.5
20260506031550 21 348 6.4 9.7 0.00 0.00 0.00 48 1012.3
20260506030053 21 337 4.8 8.0 0.00 0.00 0.00 48 1012.3
20260506024607 23 329 3.2 8.0 0.00 0.00 0.00 43 1012.1
20260506023048 24 50 1.6 12.9 0.00 0.00 0.00 40 1012.0
20260506021552 25 5 4.8 9.7 0.00 0.00 0.00 35 1011.9
20260506020050 25 0 0.0 6.4 0.00 0.00 0.00 36 1011.8
20260506014554 25 11 4.8 12.9 0.00 0.00 0.00 36 1011.7
20260506013102 25 10 4.8 8.0 0.00 0.00 0.00 35 1011.8
20260506011603 25 39 9.7 17.7 0.00 0.00 0.00 35 1011.8
20260506010047 25 16 9.7 14.5 0.00 0.00 0.00 35 1011.7
20260506004555 25 55 12.9 20.9 0.00 0.00 0.00 35 1011.8
20260506003048 25 331 3.2 16.1 0.00 0.00 0.00 33 1011.7
20260506001553 25 24 11.3 20.9 0.00 0.00 0.00 34 1011.8
20260506000051 26 65 8.0 17.7 0.00 0.00 0.00 32 1011.8
20260505234552 26 39 9.7 25.7 0.00 0.00 0.00 33 1011.9
20260505233050 25 318 6.4 17.7 0.00 0.00 0.00 34 1011.9
20260505231547 26 338 8.0 19.3 0.00 0.00 0.00 34 1012.0
20260505230057 25 15 4.8 20.9 0.00 0.00 0.00 34 1012.0
20260505224552 25 57 16.1 22.5 0.00 0.00 0.00 33 1012.1
20260505223107 25 45 6.4 22.5 0.00 0.00 0.00 34 1012.2
20260505221549 25 321 8.0 16.1 0.00 0.00 0.00 35 1012.2
20260505220051 25 46 6.4 14.5 0.00 0.00 0.00 36 1012.5
20260505214555 25 59 9.7 22.5 0.00 0.00 0.00 39 1012.5
20260505213056 24 28 11.3 22.5 0.00 0.00 0.00 37 1012.5
20260505211551 24 315 8.0 20.9 0.00 0.00 0.00 38 1012.6
20260505210050 24 37 8.0 20.9 0.00 0.00 0.00 37 1012.5
20260505204558 24 18 8.0 22.5 0.00 0.00 0.00 37 1012.7
20260505203057 23 344 8.0 19.3 0.00 0.00 0.00 41 1012.6
20260505201553 23 335 6.4 16.1 0.00 0.00 0.00 42 1012.7
20260505200054 23 323 6.4 16.1 0.00 0.00 0.00 43 1012.7
20260505194603 23 82 4.8 16.1 0.00 0.00 0.00 43 1012.8
20260505193049 22 74 3.2 8.0 0.00 0.00 0.00 44 1012.7
20260505191550 22 227 1.6 12.9 0.00 0.00 0.00 46 1012.8
20260505190050 21 338 6.4 16.1 0.00 0.00 0.00 49 1012.9
20260505184555 21 277 6.4 14.5 0.00 0.00 0.00 49 1013.1
20260505183058 20 297 9.7 16.1 0.00 0.00 0.00 53 1013.1
20260505181549 20 346 8.0 17.7 0.00 0.00 0.00 52 1013.1
20260505180050 20 297 6.4 16.1 0.00 0.00 0.00 56 1012.9
20260505174551 19 297 6.4 14.5 0.00 0.00 0.00 55 1012.9
20260505173054 19 263 8.0 20.9 0.00 0.00 0.00 56 1012.9
20260505171546 18 284 6.4 19.3 0.00 0.00 0.00 57 1012.8
20260505170047 18 191 6.4 16.1 0.00 0.00 0.00 60 1012.6
20260505164601 17 219 8.0 17.7 0.00 0.00 0.00 61 1012.7
20260505163100 17 254 6.4 17.7 0.00 0.00 0.00 62 1012.7
20260505161555 17 220 9.7 16.1 0.00 0.00 0.00 64 1012.8
20260505153108 16 190 6.4 11.3 0.00 0.00 0.00 67 1012.4
20260505151600 16 240 6.4 11.3 0.00 0.00 0.00 67 1012.3
20260505124552 13 253 1.6 9.7 0.00 0.00 0.00 73 1011.1
20260505123050 13 232 6.4 12.9 0.00 0.00 0.00 72 1010.9
20260505121550 13 252 4.8 8.0 0.00 0.00 0.00 72 1011.0
20260505120054 14 252 4.8 11.3 0.00 0.00 0.00 72 1010.8
20260505114552 14 221 8.0 14.5 0.00 0.00 0.00 71 1010.7
20260505113053 15 219 6.4 9.7 0.00 0.00 0.00 70 1010.8
20260505111556 15 196 6.4 12.9 0.00 0.00 0.00 70 1010.7
20260505101550 15 213 4.8 12.9 0.00 0.00 0.00 67 1010.3
20260505100052 15 213 9.7 12.9 0.00 0.00 0.00 67 1010.1
20260505094551 15 208 9.7 12.9 0.00 0.00 0.00 67 1010.2
20260505093050 15 194 4.8 12.9 0.00 0.00 0.00 67 1010.2
20260505091558 15 196 8.0 14.5 0.00 0.00 0.00 66 1010.0
20260505090059 16 232 11.3 16.1 0.00 0.00 0.00 67 1009.9
20260505084551 15 248 6.4 11.3 0.00 0.00 0.00 68 1010.1
20260505083053 16 232 4.8 20.9 0.00 0.00 0.00 66 1010.1
20260505081601 16 209 14.5 19.3 0.00 0.00 0.00 65 1010.0
20260505080056 16 257 11.3 27.4 0.00 0.00 0.00 64 1010.0
20260505074607 16 247 11.3 17.7 0.00 0.00 0.00 66 1009.9
20260505073055 16 242 11.3 20.9 0.00 0.00 0.00 64 1009.9
20260505071549 16 224 6.4 11.3 0.00 0.00 0.00 63 1009.8
20260505070052 17 250 8.0 14.5 0.00 0.00 0.00 62 1009.7
20260505064556 17 237 11.3 22.5 0.00 0.00 0.00 62 1009.6
20260505063059 17 259 14.5 20.9 0.00 0.00 0.00 61 1009.6
20260505061617 17 250 11.3 22.5 0.00 0.00 0.00 60 1009.5